Howell, MI

10:05 AM EDT on June 29, 2017 (GMT -0400)
Livingston County

Weather History for KOZW - March, 2014

Change the Weather History Date:

Wednesday, March 5, 2014

  Actual Average Record
Temperature  
Mean Temperature 14 °F -  
Max Temperature 21 °F 36 °F 64 °F (2004)
Min Temperature 8 °F 20 °F 0 °F (2015)
Degree Days  
Heating Degree Days 50    
Moisture  
Dew Point 7 °F    
Average Humidity 68    
Maximum Humidity 89    
Minimum Humidity 51    
Precipitation  
Precipitation 0.00 in - - ()
Sea Level Pressure  
Sea Level Pressure 30.37 in    
Wind  
Wind Speed 4 mph (NNE)    
Max Wind Speed 13 mph    
Max Gust Speed 16 mph    
Visibility 10 miles    
Events      
Averages and records for this station are not official NWS values.
T = Trace of Precipitation, MM = Missing Value Source: NWS Daily Summary

Daily Weather History Graph

Daily Weather History Graph

Search for Another Location

Airport or City:

Trip Planner

Search our weather history database for the weather conditions in past years. The results will help you decide how hot, cold, wet, or windy it might be!

Date:

Astronomy

Mar. 05, 2014 Rise Set
Actual Time 7:04 AM EST 6:30 PM EST
Civil Twilight 6:36 AM EST 6:58 PM EST
Nautical Twilight 6:04 AM EST 7:31 PM EST
Astronomical Twilight 5:31 AM EST 8:04 PM EST
Moon 9:23 AM EST (3/5) 11:45 PM EST (3/5)
Length of Visible Light 12h 21m
Length of Day
11h 25m
Waxing Crescent, 23% of the Moon is Illuminated
Mar 5
Waxing Crescent
Mar 8
First Quarter
Mar 16
Full
Mar 23
Last Quarter
Mar 30
New

Hourly Weather History & Observations

Time (EST) Temp. Windchill Dew Point Humidity Pressure Visibility Wind Dir Wind Speed Gust Speed Precip Events Conditions
12:15 AM 16.7 °F - 4.6 °F 59% 30.23 in 10.0 mi Calm Calm - N/A   Overcast
12:35 AM 16.7 °F - 4.1 °F 58% 30.23 in 10.0 mi Calm Calm - N/A   Overcast
12:54 AM 16.9 °F - 3.9 °F 57% 30.23 in 10.0 mi Calm Calm - N/A   Overcast
1:15 AM 17.8 °F - 2.3 °F 51% 30.23 in 10.0 mi Calm Calm - N/A   Overcast
1:35 AM 17.4 °F - 3.4 °F 54% 30.23 in 10.0 mi Calm Calm - N/A   Overcast
1:54 AM 16.5 °F - 5.5 °F 62% 30.24 in 10.0 mi Calm Calm - N/A   Overcast
2:15 AM 16.7 °F - 2.8 °F 55% 30.23 in 10.0 mi Calm Calm - N/A   Overcast
2:35 AM 16.2 °F - 2.3 °F 54% 30.23 in 10.0 mi Calm Calm - N/A   Overcast
2:54 AM 15.8 °F 10.2 °F 3.2 °F 58% 30.23 in 10.0 mi NNW 3.5 mph - N/A   Overcast
3:15 AM 15.8 °F - 3.4 °F 58% 30.22 in 10.0 mi Calm Calm - N/A   Overcast
3:35 AM 15.6 °F - 2.8 °F 57% 30.22 in 10.0 mi Calm Calm - N/A   Overcast
3:54 AM 15.6 °F 8.3 °F 3.0 °F 58% 30.23 in 10.0 mi NW 4.6 mph - N/A   Overcast
4:15 AM 15.8 °F 6.1 °F 4.1 °F 60% 30.23 in 10.0 mi NW 6.9 mph - N/A   Overcast
4:35 AM 15.8 °F 8.6 °F 5.5 °F 64% 30.25 in 10.0 mi NW 4.6 mph - N/A   Overcast
4:54 AM 16.2 °F 10.6 °F 5.9 °F 64% 30.26 in 10.0 mi North 3.5 mph - N/A   Overcast
5:15 AM 15.8 °F 10.2 °F 7.7 °F 70% 30.27 in 10.0 mi North 3.5 mph - N/A   Overcast
5:35 AM 15.6 °F 8.3 °F 8.4 °F 73% 30.28 in 10.0 mi North 4.6 mph - N/A   Overcast
5:54 AM 15.4 °F 6.8 °F 9.0 °F 76% 30.29 in 10.0 mi North 5.8 mph - N/A   Overcast
6:15 AM 14.9 °F 7.5 °F 9.1 °F 78% 30.30 in 10.0 mi NNE 4.6 mph - N/A   Overcast
6:35 AM 14.4 °F 8.6 °F 9.0 °F 79% 30.30 in 10.0 mi North 3.5 mph - N/A   Mostly Cloudy
6:54 AM 13.8 °F 6.2 °F 8.6 °F 80% 30.30 in 10.0 mi NNE 4.6 mph - N/A   Mostly Cloudy
7:15 AM 13.1 °F 7.1 °F 8.2 °F 81% 30.31 in 7.0 mi NNE 3.5 mph - N/A   Overcast
7:35 AM 12.7 °F 5.0 °F 8.1 °F 82% 30.31 in 10.0 mi NNE 4.6 mph - N/A   Mostly Cloudy
7:55 AM 12.9 °F 2.6 °F 8.2 °F 82% 30.32 in 10.0 mi NNE 6.9 mph - N/A   Scattered Clouds
8:15 AM 13.1 °F 7.1 °F 8.4 °F 82% 30.33 in 10.0 mi NNE 3.5 mph - N/A   Mostly Cloudy
8:35 AM 13.1 °F 5.4 °F 8.2 °F 81% 30.35 in 10.0 mi NNE 4.6 mph - N/A   Overcast
8:55 AM 14.0 °F 5.1 °F 9.0 °F 80% 30.35 in 10.0 mi NNE 5.8 mph - N/A   Overcast
9:15 AM 14.5 °F 7.1 °F 9.5 °F 80% 30.37 in 10.0 mi NNE 4.6 mph - N/A   Overcast
9:35 AM 15.3 °F 7.9 °F 9.5 °F 78% 30.37 in 10.0 mi NNE 4.6 mph - N/A   Overcast
9:55 AM 15.8 °F 8.6 °F 9.9 °F 77% 30.37 in 10.0 mi ENE 4.6 mph - N/A   Overcast
10:15 AM 15.8 °F 8.6 °F 9.5 °F 76% 30.37 in 10.0 mi North 4.6 mph - N/A   Overcast
10:35 AM 16.7 °F 9.6 °F 10.0 °F 75% 30.38 in 10.0 mi NNE 4.6 mph - N/A   Overcast
10:55 AM 17.4 °F 8.0 °F 9.9 °F 72% 30.39 in 10.0 mi NNE 6.9 mph - N/A   Mostly Cloudy
11:15 AM 18.0 °F 9.8 °F 10.0 °F 71% 30.39 in 10.0 mi NE 5.8 mph - N/A   Mostly Cloudy
11:34 AM 18.3 °F 9.1 °F 10.6 °F 72% 30.40 in 10.0 mi North 6.9 mph - N/A   Mostly Cloudy
11:55 AM 18.5 °F 9.3 °F 10.8 °F 72% 30.41 in 10.0 mi NNW 6.9 mph - N/A   Mostly Cloudy
12:15 PM 19.0 °F 11.1 °F 10.8 °F 70% 30.41 in 10.0 mi North 5.8 mph - N/A   Scattered Clouds
12:34 PM 19.9 °F 14.9 °F 10.8 °F 68% 30.41 in 10.0 mi North 3.5 mph - N/A   Scattered Clouds
12:55 PM 19.9 °F 10.1 °F 9.9 °F 65% 30.41 in 10.0 mi NE 8.1 mph - N/A   Scattered Clouds
1:15 PM 20.3 °F 12.5 °F 10.8 °F 67% 30.40 in 5.0 mi North 5.8 mph - N/A   Haze
1:34 PM 21.4 °F 11.9 °F 10.0 °F 62% 30.41 in 10.0 mi NE 8.1 mph - N/A   Mostly Cloudy
1:55 PM 21.0 °F 10.6 °F 10.0 °F 63% 30.40 in 10.0 mi NNE 9.2 mph - N/A   Mostly Cloudy
2:15 PM 21.4 °F 9.7 °F 9.7 °F 61% 30.40 in 10.0 mi NE 11.5 mph - N/A   Mostly Cloudy
2:34 PM 21.9 °F 11.7 °F 9.7 °F 59% 30.40 in 10.0 mi NE 9.2 mph - N/A   Mostly Cloudy
2:55 PM 21.6 °F 13.0 °F 9.3 °F 59% 30.41 in 10.0 mi NNE 6.9 mph - N/A   Mostly Cloudy
3:14 PM 21.4 °F 11.9 °F 9.5 °F 60% 30.41 in 10.0 mi NNE 8.1 mph - N/A   Mostly Cloudy
3:35 PM 20.8 °F 12.1 °F 9.0 °F 60% 30.42 in 10.0 mi NE 6.9 mph - N/A   Overcast
3:55 PM 21.0 °F 13.4 °F 8.2 °F 58% 30.43 in 10.0 mi NNE 5.8 mph - N/A   Overcast
4:14 PM 21.2 °F 10.1 °F 7.7 °F 56% 30.43 in 10.0 mi NE 10.4 mph - N/A   Mostly Cloudy
4:35 PM 21.0 °F 10.6 °F 7.7 °F 56% 30.43 in 10.0 mi NNE 9.2 mph - N/A   Overcast
4:55 PM 20.1 °F 12.3 °F 6.8 °F 56% 30.43 in 10.0 mi NE 5.8 mph - N/A   Overcast
5:14 PM 20.1 °F 7.5 °F 7.0 °F 57% 30.43 in 10.0 mi ENE 12.7 mph 16.1 mph N/A   Overcast
5:35 PM 19.4 °F 9.5 °F 6.1 °F 56% 30.44 in 10.0 mi ENE 8.1 mph - N/A   Scattered Clouds
5:55 PM 18.9 °F 9.8 °F 7.0 °F 60% 30.45 in 10.0 mi NNE 6.9 mph - N/A   Mostly Cloudy
6:14 PM 18.0 °F 6.9 °F 6.1 °F 60% 30.45 in 10.0 mi NE 9.2 mph - N/A   Scattered Clouds
6:35 PM 17.2 °F 7.8 °F 6.3 °F 62% 30.46 in 10.0 mi NE 6.9 mph - N/A   Scattered Clouds
6:55 PM 16.7 °F 7.2 °F 5.9 °F 63% 30.47 in 10.0 mi NE 6.9 mph - N/A   Scattered Clouds
7:14 PM 15.8 °F 7.2 °F 5.7 °F 64% 30.47 in 10.0 mi NE 5.8 mph - N/A   Clear
7:35 PM 14.9 °F 7.5 °F 5.4 °F 66% 30.48 in 10.0 mi NE 4.6 mph - N/A   Clear
7:55 PM 14.0 °F 3.9 °F 5.2 °F 68% 30.48 in 10.0 mi NE 6.9 mph - N/A   Scattered Clouds
8:15 PM 13.1 °F 5.4 °F 4.8 °F 70% 30.48 in 10.0 mi NE 4.6 mph - N/A   Scattered Clouds
8:35 PM 12.2 °F 6.1 °F 4.6 °F 72% 30.48 in 10.0 mi NE 3.5 mph - N/A   Clear
8:55 PM 11.3 °F 5.1 °F 4.5 °F 74% 30.48 in 10.0 mi NE 3.5 mph - N/A   Clear
9:15 PM 10.4 °F 0.8 °F 3.7 °F 74% 30.49 in 10.0 mi NE 5.8 mph - N/A   Clear
9:35 PM 10.9 °F 1.4 °F 3.7 °F 73% 30.48 in 10.0 mi NE 5.8 mph - N/A   Clear
9:55 PM 10.2 °F -0.6 °F 3.2 °F 73% 30.48 in 10.0 mi NE 6.9 mph - N/A   Clear
10:15 PM 9.5 °F -0.3 °F 3.7 °F 77% 30.48 in 10.0 mi NE 5.8 mph - N/A   Clear
10:35 PM 9.5 °F -1.5 °F 4.3 °F 79% 30.48 in 10.0 mi NE 6.9 mph - N/A   Clear
10:54 PM 9.1 °F -0.7 °F 4.8 °F 83% 30.48 in 10.0 mi NE 5.8 mph - N/A   Clear
11:15 PM 9.3 °F -0.5 °F 5.9 °F 86% 30.47 in 10.0 mi NE 5.8 mph - N/A   Clear
11:35 PM 8.4 °F -0.1 °F 5.5 °F 88% 30.47 in 10.0 mi NE 4.6 mph - N/A   Clear
11:54 PM 8.1 °F 1.4 °F 5.5 °F 89% 30.47 in 10.0 mi NE 3.5 mph - N/A   Clear